1998-067TF

Last updated on Tue Feb 15 2022 00:02:05 GMT+0000 (Coordinated Universal Time)

1 51443U 98067TF 22045.51568011 .00053160 00000+0 85000-3 0 9997 2 51443 51.6388 223.8512 0008481 136.1305 224.0359 15.52586254 2957

Satellite not in orbit